{"data":{"norad_id":64583,"epoch":"2026-09-21T20:33:59.689440Z","epoch_age_seconds":60346,"freshness":"FRESH","line1":"1 64583U 25135BH  26264.85694085  .00004498  00000+0  44598-3 0  9994","line2":"2 64583  97.7749  17.1191 0005718  45.6783 314.4903 14.92274374 68264","mean_motion":14.92274374,"eccentricity":0.0005718,"inclination_deg":97.7749,"raan_deg":17.1191,"arg_perigee_deg":45.6783,"mean_anomaly_deg":314.4903,"bstar":0.00044598,"rev_number":6826,"period_min":96.49699982049,"perigee_km":586.86084860587,"apogee_km":594.83057723636,"semimajor_km":6968.9827129211,"source":"CELESTRAK","updated_at":"2026-09-22T09:00:29.854613Z"}}